Weather in Najran

Saudi Arabia     17°29′09″N   44°07′46″E
temp.,
°C
wind,
m/s
gust,
m/s
humid.,
%
clouds,
%
prec.,
mm/h
press.,
hPa
HPBL,
m
16 april, fri
fri1600:00+25nnw1136100 0.0 101213
03:00+22nne7123784 0.0 1013756
06:00+20nne2243100 0.0 101527
09:00+23ne5533100 0.0 10161109
12:00+27ene551994 0.0 10141669
15:00+30e5415100 0.0 10102688
18:00+28e771799 0.0 10101487
21:00+24ene5112479 0.0 1014314
17 april, sat
sat1700:00+21e1127100 0.0 101513
03:00+21nne2226100 0.0 101433
06:00+20ne2227100 0.0 101612
09:00+23e3522100 0.0 1017887
12:00+25e4519100 0.0 10151444
15:00+28e441699 0.0 10121797
18:00+27e6716100 0.0 1012645
21:00+24ene3521100 0.0 1015113
18 april, sun
sun1800:00+21nne1124100 0.0 101611
03:00+21nne222496 0.0 101612
06:00+18nne112870 0.0 101811
09:00+24e461899 0.0 10181048
12:00+28e661576 0.0 10151930
15:00+30e6514100 0.0 10122954
18:00+28e661799 0.0 10131455
21:00+24ene332398 0.0 101533
19 april, mon
mon1900:00+22se112541 0.0 101611
03:00+20n112588 0.0 101611
06:00+18n12255 0.0 101811
09:00+25e461612 0.0 10181060
12:00+29e661398 0.0 10162143
15:00+30e6512100 0.0 10123027
18:00+28e67130 0.0 1013262
21:00+23ene23180 0.0 101512
20 april, tue
tue2000:00+21ssw22200 0.0 101511
03:00+19wnw2222100 0.0 101511
06:00+19wnw112272 0.0 101611
09:00+26e351398 0.0 10161225
12:00+30e551099 0.0 10132889
15:00+31e5589 0.0 10103361
18:00+29e5790 0.0 1011139
21:00+23se22130 0.0 101311